Terminal Aerodrome Forecast
Issued by NWS

Home | Current Version | Previous Version | Text Only | Print | Product List | Glossary Off
Versions: 1 2 3 4 5 6 7 8 9 10 11 12 13 14

000
FTUS43 KFGF 132300
TAFBJI
TAF
KBJI 132339Z 1400/1424 17009KT P6SM BKN060
     FM140300 19007KT P6SM VCSH BKN060
     FM140600 26007KT P6SM BKN080
     FM141400 27012KT P6SM BKN100=

USA.gov is the U.S. government's official web portal to all federal, state and local government web resources and services.